AIB306 SPJC-SPZO

Flight info

Callsign AIB306
Flight time 0h 55m
Altitude 39000
Route PAKOL UM668 POVLO DCT DARKI
Aircraft A346/H-SDE2E3FGHIJ3J4J5M1RWXY/LB1D1

Departure

Time 2026-05-05 11:54
Airport Jorge Chávez International Airport (SPJC)

Arrival

Time 2026-05-05 12:49
Airport Alejandro Velasco Astete International Airport (SPZO)
Time Latitude Longitude Altitude Speed Heading
2026-05-05 11:23 -12.02602 -77.11738 88 ft 0 kts 244°
2026-05-05 11:43 -12.02594 -77.11722 90 ft 4 kts 244°
2026-05-05 11:43 -12.02582 -77.11697 91 ft 3 kts 244°
2026-05-05 11:44 -12.02575 -77.11677 91 ft 4 kts 263°
2026-05-05 11:44 -12.02576 -77.11660 91 ft 4 kts 303°
2026-05-05 11:44 -12.02592 -77.11647 91 ft 4 kts 334°
2026-05-05 11:44 -12.02616 -77.11636 92 ft 3 kts 335°
2026-05-05 11:45 -12.02619 -77.11634 92 ft 0 kts 334°
2026-05-05 11:49 -12.02610 -77.11639 91 ft 5 kts 334°
2026-05-05 11:49 -12.02560 -77.11663 93 ft 14 kts 333°
2026-05-05 11:49 -12.02460 -77.11714 91 ft 18 kts 334°
2026-05-05 11:50 -12.02386 -77.11702 92 ft 12 kts 44°
2026-05-05 11:50 -12.02339 -77.11613 91 ft 16 kts 66°
2026-05-05 11:50 -12.02240 -77.11581 87 ft 19 kts 339°
2026-05-05 11:50 -12.02101 -77.11650 84 ft 25 kts 334°
2026-05-05 11:51 -12.01936 -77.11733 67 ft 28 kts 334°
2026-05-05 11:51 -12.01750 -77.11824 66 ft 31 kts 334°
2026-05-05 11:51 -12.01552 -77.11924 69 ft 33 kts 333°
2026-05-05 11:51 -12.01342 -77.12033 59 ft 35 kts 333°
2026-05-05 11:52 -12.01157 -77.12185 59 ft 28 kts 338°
2026-05-05 11:52 -12.01018 -77.12259 52 ft 24 kts 334°
2026-05-05 11:52 -12.00872 -77.12301 55 ft 19 kts 29°
2026-05-05 11:52 -12.00800 -77.12178 52 ft 20 kts 83°
2026-05-05 11:53 -12.00889 -77.12073 61 ft 21 kts 153°
2026-05-05 11:53 -12.01058 -77.11990 60 ft 48 kts 154°
2026-05-05 11:53 -12.01584 -77.11727 70 ft 117 kts 154°
2026-05-05 11:53 -12.02498 -77.11278 106 ft 171 kts 154°
2026-05-05 11:54 -12.03598 -77.10688 623 ft 183 kts 152°
2026-05-05 11:54 -12.04765 -77.10084 1312 ft 192 kts 153°
2026-05-05 11:54 -12.05964 -77.09497 2054 ft 194 kts 155°
2026-05-05 11:54 -12.07242 -77.08889 2486 ft 213 kts 154°
2026-05-05 11:55 -12.08641 -77.08216 3011 ft 231 kts 154°
2026-05-05 11:55 -12.10150 -77.07481 3552 ft 249 kts 154°
2026-05-05 11:55 -12.11769 -77.06688 4112 ft 267 kts 154°
2026-05-05 11:55 -12.13539 -77.06000 4792 ft 278 kts 172°
2026-05-05 11:56 -12.15452 -77.06175 5477 ft 279 kts 201°
2026-05-05 11:56 -12.17052 -77.07269 5865 ft 280 kts 230°
2026-05-05 11:56 -12.18033 -77.08974 6009 ft 280 kts 246°
2026-05-05 11:56 -12.18764 -77.10791 6008 ft 283 kts 257°
2026-05-05 11:57 -12.18643 -77.12819 6450 ft 293 kts 293°
2026-05-05 11:57 -12.17464 -77.14471 7499 ft 286 kts 320°
2026-05-05 11:57 -12.15734 -77.15408 8533 ft 283 kts 346°
2026-05-05 11:57 -12.13770 -77.15470 9404 ft 287 kts 12°
2026-05-05 11:58 -12.11914 -77.14688 10201 ft 292 kts 27°
2026-05-05 11:58 -12.10090 -77.13688 10767 ft 305 kts 31°
2026-05-05 11:58 -12.08427 -77.12251 11131 ft 324 kts 50°
2026-05-05 11:58 -12.07257 -77.10218 11484 ft 342 kts 70°
2026-05-05 11:59 -12.06834 -77.07770 11825 ft 360 kts 91°
2026-05-05 11:59 -12.07344 -77.05238 12396 ft 369 kts 113°
2026-05-05 11:59 -12.08633 -77.02964 13224 ft 370 kts 123°
2026-05-05 11:59 -12.10027 -77.00742 14029 ft 373 kts 122°
2026-05-05 12:00 -12.11433 -76.98491 14695 ft 377 kts 122°
2026-05-05 12:00 -12.12852 -76.96217 15373 ft 381 kts 122°
2026-05-05 12:00 -12.14282 -76.93920 16077 ft 384 kts 122°
2026-05-05 12:00 -12.15721 -76.91607 16811 ft 387 kts 121°
2026-05-05 12:01 -12.17168 -76.89276 17513 ft 390 kts 121°
2026-05-05 12:01 -12.18625 -76.86927 18232 ft 392 kts 121°
2026-05-05 12:01 -12.20093 -76.84560 18808 ft 396 kts 121°
2026-05-05 12:01 -12.21576 -76.82163 19362 ft 400 kts 121°
2026-05-05 12:02 -12.23075 -76.79742 19927 ft 404 kts 121°
2026-05-05 12:02 -12.24587 -76.77299 20514 ft 408 kts 121°
2026-05-05 12:02 -12.26114 -76.74833 21086 ft 412 kts 121°
2026-05-05 12:02 -12.27654 -76.72344 21643 ft 416 kts 121°
2026-05-05 12:03 -12.29210 -76.69829 22196 ft 420 kts 121°
2026-05-05 12:03 -12.30781 -76.67290 22744 ft 424 kts 121°
2026-05-05 12:03 -12.32366 -76.64727 23336 ft 428 kts 121°
2026-05-05 12:03 -12.33945 -76.62173 23812 ft 432 kts 121°
2026-05-05 12:04 -12.35581 -76.59527 24254 ft 436 kts 121°
2026-05-05 12:04 -12.37189 -76.56925 24686 ft 440 kts 121°
2026-05-05 12:04 -12.38834 -76.54264 25124 ft 444 kts 121°
2026-05-05 12:04 -12.40490 -76.51582 25571 ft 448 kts 121°
2026-05-05 12:05 -12.42167 -76.48867 26057 ft 453 kts 120°
2026-05-05 12:05 -12.43857 -76.46128 26442 ft 458 kts 121°
2026-05-05 12:05 -12.45566 -76.43356 26897 ft 461 kts 121°
2026-05-05 12:05 -12.47287 -76.40566 27352 ft 465 kts 120°
2026-05-05 12:06 -12.49025 -76.37752 27762 ft 470 kts 121°
2026-05-05 12:06 -12.50777 -76.34908 28213 ft 474 kts 121°
2026-05-05 12:06 -12.52545 -76.32040 28634 ft 478 kts 121°
2026-05-05 12:06 -12.54328 -76.29147 29039 ft 482 kts 121°
2026-05-05 12:07 -12.56129 -76.26224 29394 ft 487 kts 121°
2026-05-05 12:07 -12.57945 -76.23277 29785 ft 491 kts 121°
2026-05-05 12:07 -12.59775 -76.20306 30187 ft 495 kts 120°
2026-05-05 12:07 -12.61623 -76.17305 30501 ft 499 kts 120°
2026-05-05 12:08 -12.63477 -76.14297 30949 ft 499 kts 120°
2026-05-05 12:08 -12.65326 -76.11298 31508 ft 496 kts 120°
2026-05-05 12:08 -12.67167 -76.08307 32089 ft 494 kts 120°
2026-05-05 12:08 -12.68994 -76.05333 32656 ft 492 kts 119°
2026-05-05 12:09 -12.70743 -76.02324 33183 ft 489 kts 116°
2026-05-05 12:09 -12.72323 -75.99243 33743 ft 486 kts 112°
2026-05-05 12:09 -12.73726 -75.96095 34269 ft 483 kts 109°
2026-05-05 12:09 -12.74946 -75.92898 34734 ft 481 kts 106°
2026-05-05 12:10 -12.75992 -75.89642 35178 ft 480 kts 103°
2026-05-05 12:10 -12.76858 -75.86340 35551 ft 480 kts 101°
2026-05-05 12:10 -12.77645 -75.83002 35905 ft 481 kts 100°
2026-05-05 12:10 -12.78421 -75.79664 36284 ft 481 kts 100°
2026-05-05 12:11 -12.79195 -75.76320 36717 ft 482 kts 101°
2026-05-05 12:11 -12.79971 -75.72977 37164 ft 481 kts 101°
2026-05-05 12:11 -12.80748 -75.69645 37642 ft 480 kts 101°
2026-05-05 12:11 -12.81524 -75.66315 37969 ft 481 kts 101°
2026-05-05 12:12 -12.82304 -75.62971 38248 ft 483 kts 102°
2026-05-05 12:12 -12.83095 -75.59604 38501 ft 486 kts 102°
2026-05-05 12:12 -12.83885 -75.56234 38787 ft 487 kts 102°
2026-05-05 12:12 -12.84678 -75.52843 39042 ft 489 kts 102°
2026-05-05 12:13 -12.85472 -75.49448 39283 ft 490 kts 102°
2026-05-05 12:13 -12.86267 -75.46046 39309 ft 491 kts 102°
2026-05-05 12:13 -12.87856 -75.39227 39313 ft 490 kts 102°
2026-05-05 12:14 -12.89439 -75.32424 39353 ft 490 kts 102°
2026-05-05 12:14 -12.91019 -75.25626 39355 ft 490 kts 102°
2026-05-05 12:15 -12.92597 -75.18823 39375 ft 490 kts 102°
2026-05-05 12:15 -12.94163 -75.12067 39375 ft 490 kts 102°
2026-05-05 12:16 -12.95736 -75.05265 39395 ft 489 kts 102°
2026-05-05 12:16 -12.97303 -74.98477 39395 ft 489 kts 102°
2026-05-05 12:17 -12.98872 -74.91686 39391 ft 489 kts 102°
2026-05-05 12:17 -13.00440 -74.84892 39394 ft 489 kts 102°
2026-05-05 12:18 -13.02006 -74.78097 39409 ft 489 kts 102°
2026-05-05 12:18 -13.03570 -74.71301 39422 ft 489 kts 102°
2026-05-05 12:19 -13.05134 -74.64500 39413 ft 489 kts 102°
2026-05-05 12:19 -13.06695 -74.57691 39428 ft 490 kts 102°
2026-05-05 12:20 -13.08255 -74.50883 39437 ft 489 kts 102°
2026-05-05 12:20 -13.09813 -74.44078 39456 ft 489 kts 102°
2026-05-05 12:21 -13.11369 -74.37266 39467 ft 489 kts 102°
2026-05-05 12:21 -13.12919 -74.30463 39483 ft 488 kts 102°
2026-05-05 12:22 -13.14471 -74.23671 39484 ft 488 kts 102°
2026-05-05 12:22 -13.16017 -74.16881 39483 ft 488 kts 102°
2026-05-05 12:23 -13.17558 -74.10092 39483 ft 488 kts 102°
2026-05-05 12:23 -13.19089 -74.03344 39440 ft 488 kts 102°
2026-05-05 12:24 -13.20633 -73.96531 39439 ft 487 kts 102°
2026-05-05 12:24 -13.22168 -73.89753 39428 ft 487 kts 102°
2026-05-05 12:25 -13.23702 -73.82969 39422 ft 487 kts 102°
2026-05-05 12:25 -13.25234 -73.76184 39369 ft 487 kts 102°
2026-05-05 12:26 -13.26003 -73.72776 39149 ft 487 kts 102°
2026-05-05 12:26 -13.26765 -73.69397 38884 ft 484 kts 102°
2026-05-05 12:26 -13.27524 -73.66036 38573 ft 481 kts 102°
2026-05-05 12:26 -13.28279 -73.62696 38161 ft 478 kts 102°
2026-05-05 12:27 -13.29031 -73.59360 37668 ft 477 kts 101°
2026-05-05 12:27 -13.29780 -73.56038 37113 ft 477 kts 101°
2026-05-05 12:27 -13.30527 -73.52714 36563 ft 478 kts 101°
2026-05-05 12:27 -13.31277 -73.49376 35913 ft 480 kts 101°
2026-05-05 12:28 -13.31774 -73.47160 35492 ft 482 kts 101°
2026-05-05 12:28 -13.32534 -73.43780 34878 ft 483 kts 100°
2026-05-05 12:28 -13.33292 -73.40407 34262 ft 485 kts 100°
2026-05-05 12:28 -13.34047 -73.37024 33559 ft 486 kts 100°
2026-05-05 12:29 -13.34803 -73.33630 32889 ft 487 kts 100°
2026-05-05 12:29 -13.35560 -73.30235 32253 ft 487 kts 100°
2026-05-05 12:29 -13.36314 -73.26842 31615 ft 487 kts 101°
2026-05-05 12:29 -13.37071 -73.23450 30957 ft 488 kts 101°
2026-05-05 12:30 -13.37833 -73.20047 30276 ft 488 kts 101°
2026-05-05 12:30 -13.38592 -73.16657 29807 ft 482 kts 101°
2026-05-05 12:30 -13.39340 -73.13313 29299 ft 478 kts 101°
2026-05-05 12:30 -13.40081 -73.09997 28802 ft 473 kts 101°
2026-05-05 12:31 -13.40811 -73.06722 28461 ft 464 kts 101°
2026-05-05 12:31 -13.41524 -73.03530 28351 ft 451 kts 101°
2026-05-05 12:31 -13.42214 -73.00435 28227 ft 437 kts 101°
2026-05-05 12:31 -13.42881 -72.97434 28113 ft 424 kts 101°
2026-05-05 12:32 -13.43529 -72.94516 28003 ft 412 kts 101°
2026-05-05 12:32 -13.44150 -72.91722 27888 ft 400 kts 101°
2026-05-05 12:32 -13.44697 -72.88928 27781 ft 386 kts 96°
2026-05-05 12:32 -13.44949 -72.86256 27669 ft 375 kts 90°
2026-05-05 12:33 -13.44932 -72.83586 27266 ft 372 kts 85°
2026-05-05 12:33 -13.44781 -72.80937 26878 ft 369 kts 84°
2026-05-05 12:33 -13.44614 -72.78311 26509 ft 367 kts 84°
2026-05-05 12:33 -13.44447 -72.75705 26164 ft 364 kts 84°
2026-05-05 12:34 -13.44285 -72.73110 25804 ft 362 kts 84°
2026-05-05 12:34 -13.44128 -72.70531 25468 ft 360 kts 84°
2026-05-05 12:34 -13.43971 -72.67964 25133 ft 358 kts 85°
2026-05-05 12:34 -13.43817 -72.65416 24775 ft 356 kts 85°
2026-05-05 12:35 -13.43665 -72.62889 24439 ft 354 kts 85°
2026-05-05 12:35 -13.43512 -72.60366 24100 ft 352 kts 85°
2026-05-05 12:35 -13.43360 -72.57859 23732 ft 350 kts 85°
2026-05-05 12:35 -13.43208 -72.55370 23349 ft 347 kts 85°
2026-05-05 12:36 -13.43059 -72.52903 23009 ft 343 kts 85°
2026-05-05 12:36 -13.42910 -72.50463 22669 ft 340 kts 85°
2026-05-05 12:36 -13.42763 -72.48043 22328 ft 337 kts 85°
2026-05-05 12:36 -13.42617 -72.45648 22009 ft 334 kts 85°
2026-05-05 12:37 -13.42473 -72.43281 21690 ft 330 kts 85°
2026-05-05 12:37 -13.42329 -72.40932 21363 ft 328 kts 85°
2026-05-05 12:37 -13.42185 -72.38603 21040 ft 325 kts 85°
2026-05-05 12:37 -13.42044 -72.36289 20717 ft 323 kts 87°
2026-05-05 12:38 -13.42085 -72.33983 20394 ft 322 kts 95°
2026-05-05 12:38 -13.42453 -72.31712 20040 ft 322 kts 103°
2026-05-05 12:38 -13.43056 -72.29492 19701 ft 321 kts 105°
2026-05-05 12:38 -13.43698 -72.27295 19393 ft 320 kts 106°
2026-05-05 12:39 -13.44341 -72.25111 19045 ft 318 kts 106°
2026-05-05 12:39 -13.44979 -72.22939 18718 ft 316 kts 106°
2026-05-05 12:39 -13.45612 -72.20776 18352 ft 315 kts 106°
2026-05-05 12:39 -13.46244 -72.18610 18120 ft 313 kts 106°
2026-05-05 12:40 -13.46868 -72.16467 17812 ft 311 kts 106°
2026-05-05 12:40 -13.47487 -72.14339 17502 ft 309 kts 106°
2026-05-05 12:40 -13.48100 -72.12226 17208 ft 307 kts 106°
2026-05-05 12:40 -13.48709 -72.10127 16899 ft 305 kts 106°
2026-05-05 12:41 -13.49308 -72.08064 16603 ft 304 kts 106°
2026-05-05 12:41 -13.49912 -72.05981 16307 ft 303 kts 106°
2026-05-05 12:41 -13.50513 -72.03907 16012 ft 302 kts 107°
2026-05-05 12:41 -13.51113 -72.01837 15709 ft 301 kts 107°
2026-05-05 12:42 -13.51710 -71.99776 15390 ft 300 kts 107°
2026-05-05 12:42 -13.52311 -71.97701 15097 ft 299 kts 107°
2026-05-05 12:42 -13.52901 -71.95663 14843 ft 296 kts 107°
2026-05-05 12:42 -13.53488 -71.93634 14572 ft 294 kts 107°
2026-05-05 12:43 -13.54057 -71.91668 14562 ft 279 kts 107°
2026-05-05 12:43 -13.54599 -71.89802 14558 ft 265 kts 107°
2026-05-05 12:43 -13.55116 -71.88013 14547 ft 256 kts 107°
2026-05-05 12:43 -13.55617 -71.86278 14531 ft 251 kts 107°
2026-05-05 12:44 -13.56100 -71.84603 14510 ft 237 kts 107°
2026-05-05 12:44 -13.56340 -71.82974 14255 ft 229 kts 82°
2026-05-05 12:44 -13.55827 -71.81448 14019 ft 224 kts 71°
2026-05-05 12:44 -13.55720 -71.79908 13754 ft 216 kts 108°
2026-05-05 12:45 -13.56619 -71.78781 13495 ft 201 kts 155°
2026-05-05 12:45 -13.57905 -71.78707 13269 ft 184 kts 206°
2026-05-05 12:45 -13.58876 -71.79533 13174 ft 182 kts 234°
2026-05-05 12:45 -13.59390 -71.80708 13000 ft 181 kts 261°
2026-05-05 12:46 -13.59283 -71.81981 12823 ft 181 kts 294°
2026-05-05 12:46 -13.58492 -71.82959 12687 ft 181 kts 331°
2026-05-05 12:46 -13.57296 -71.83315 12480 ft 180 kts 346°
2026-05-05 12:46 -13.56227 -71.83917 12248 ft 179 kts 303°
2026-05-05 12:47 -13.55668 -71.85063 12092 ft 179 kts 294°
2026-05-05 12:47 -13.55133 -71.86220 11872 ft 179 kts 299°
2026-05-05 12:47 -13.54530 -71.87334 11624 ft 178 kts 295°
2026-05-05 12:47 -13.54107 -71.88524 11386 ft 177 kts 279°
2026-05-05 12:48 -13.53982 -71.89785 11126 ft 177 kts 274°
2026-05-05 12:48 -13.53864 -71.91039 10895 ft 176 kts 275°
2026-05-05 12:48 -13.53742 -71.92290 10756 ft 175 kts 276°
2026-05-05 12:48 -13.53620 -71.93441 10783 ft 134 kts 276°
2026-05-05 12:49 -13.53546 -71.94171 10822 ft 70 kts 276°
2026-05-05 12:49 -13.53507 -71.94525 10826 ft 42 kts 275°
2026-05-05 12:49 -13.53483 -71.94773 10851 ft 27 kts 276°
2026-05-05 12:49 -13.53499 -71.94890 10855 ft 14 kts 243°
2026-05-05 12:50 -13.53564 -71.94939 10859 ft 11 kts 171°
2026-05-05 12:50 -13.53604 -71.94872 10855 ft 15 kts 101°
2026-05-05 12:50 -13.53620 -71.94746 10837 ft 21 kts 97°
2026-05-05 12:50 -13.53637 -71.94592 10828 ft 22 kts 96°
2026-05-05 12:51 -13.53656 -71.94470 10825 ft 11 kts 126°
2026-05-05 12:51 -13.53725 -71.94418 10823 ft 6 kts 146°
2026-05-05 12:51 -13.53727 -71.94417 10822 ft 0 kts 146°